STARLINK-33814, 63582

Orbit data source: Space-Track

STARLINK-33814, 63582 is a payload satellite owned by SpaceX/Seattle (US) in LEO that was launched on Mon, 14 Apr 2025 UTC via an FALCON 9 launch vehicle from the Air Force Eastern Test Range (AFETR). Payload-class satellites include a variety of spacecraft equipped with specific instruments for various scientific and technological missions. These include communications satellites like Starlink; space stations such as the ISS; scientific satellites like the Hubble; Earth observation satellites from companies like Planet Labs, Umbra, and HawkEye 360; GPS; miniature CubeSats for education and research; and military/defense satellites.

Loading next visibility...
Identifier
63582, 2025-076P
Orbit
LEO
Country
Flag of USUS
Related business
Manufacturer
SpaceX/Seattle
Mission
Operational Commercial Communications
Bus & Motor
STARLINK V2MO, Unknown motor
Mass
575 kg wet, ~530 kg dry
Launch date (UTC)
2025-04-14 (7 months ago)
Launch vehicle
FALCON 9
Launch site
Air Force Eastern Test Range (AFETR)
Object type
Payload
Rocket body
Debris
Shape & HBR
Box + 2 Pan, 17.7 m
Radar Cross Section
36.964 m², Large (>1 m²)

Expand to show TLE details & history
Last TLE update: 1 day ago

TLE from 1 day ago
0 STARLINK-33814
1 63582U 25076P   25301.47988391  .00034429  00000-0  12536-2 0  9995
2 63582  43.0035 348.0824 0001835 280.0211  80.0434 15.27612102 31618
Epoch: 2025-10-28T11:31Z
TLE epoch observation values (Epoch: 2025-10-28T11:31:01.969Z)
Latitude
-0.00001°
Longitude
138.25741°
Altitude
482.511 km
Speed
7.626 km/s
True Right ascension
23h 12m 19s
True Declination
0° 00' 00"
Sunlit
Object was in full shadow at epoch
Visualization orbit readout
Latitude
Unknown
Longitude
Unknown
Altitude
Unknown
Speed
Unknown
Apparent Right ascension
Unknown
Apparent Declination
Unknown
Sunlit
N/A
Visualization observer readout
Local Sidereal Time
15:33:14
Azimuth
Unknown
Elevation
Unknown
Doppler factor
Unknown
Orbital elements
Apogee altitude
486.157 km
Perigee altitude
483.638 km
Semi-major axis
6,863.035 km
Eccentricity
0.00018
Inclination
43.0035°
RAAN
348.0824°
Arg. of periapsis
280.0211°
True anomaly
80.06411°
Mean anomaly
80.0434°
Eccentric anomaly
80.05376°
Mean motion
3.81741 °/min
Orbital period
94.3 mins
BSTAR
0.0012536
Loading maneuver chart data...
Computing Atmospheric mass density...
Loading historical data...
Loading historical data...
Loading historical data...
Loading historical data...
Loading historical data...
Loading historical data...
Loading historical data...

Documentation

Showing up to 5 results
|